Probability
0 0 0 0 0 0 0 0 0 0 0 0 0 0 0 0 0 0 0 1 2 3 2 1 1 0 0 1 2 2 2 2 1 0 0 0 0 0 0 0 0 0 0
0 0 0 0 0 0 0 0 0 0 0 0 0 0 0 0 0 0 0 1 2 3 3 2 2 1 0 1 2 3 3 2 1 0 0 0 0 0 0 0 0 0 0
0 0 0 0 0 0 0 0 0 0 0 0 0 0 0 0 0 0 0 0 1 3 3 3 3 2 1 2 3 3 3 3 1 1 1 0 0 0 0 0 0 0 0
0 0 0 0 0 0 0 0 0 0 0 0 0 0 0 0 0 0 0 0 1 2 3 3 3 3 2 3 3 3 3 3 3 2 2 1 0 0 0 0 0 0 0
0 0 0 0 0 0 0 0 0 0 0 0 0 0 0 0 0 0 0 0 0 1 2 2 3 3 3 3 3 3 3 3 3 3 2 1 0 0 0 0 0 0 0
0 0 0 0 0 0 0 0 0 0 0 0 0 0 0 0 0 0 0 0 0 0 1 1 1 2 3 3 3 3 3 3 3 3 2 1 0 0 0 0 0 0 0
0 0 0 0 0 0 0 0 0 0 0 0 0 0 0 0 0 0 0 0 0 0 0 0 0 1 2 3 3 3 3 3 3 3 1 0 0 0 0 0 0 0 0
0 0 0 0 0 0 0 0 0 0 0 0 0 0 0 0 0 0 0 0 0 0 0 0 0 0 1 2 2 3 3 3 3 3 1 0 0 0 0 0 0 0 0
0 0 0 0 0 0 0 0 0 0 0 0 0 0 0 0 0 0 0 0 0 0 0 0 0 0 0 1 1 1 2 3 3 3 2 1 0 0 0 0 0 0 0
0 0 0 0 0 0 0 0 0 0 0 0 0 0 0 0 0 0 0 0 0 0 0 0 0 0 0 0 0 0 1 3 3 3 2 1 0 0 0 0 0 0 0
0 0 0 0 0 0 0 0 0 0 0 0 0 0 0 0 0 0 0 0 0 0 0 0 0 0 0 0 0 0 1 2 2 2 1 0 0 0 0 0 0 0 0
0 0 0 0 0 0 0 0 0 0 0 0 0 0 0 0 0 0 0 0 0 0 0 0 0 0 0 0 0 0 0 1 1 1 0 0 0 0 0 0 1 0 0
0 0 0 0 0 0 0 0 0 0 0 0 0 0 0 0 0 0 0 0 0 0 0 0 0 0 0 0 0 0 0 0 0 0 0 0 0 0 0 0 0 0 0
0 0 0 0 0 0 0 0 0 0 0 0 0 0 0 0 0 0 0 0 0 0 0 0 0 0 0 0 0 0 0 0 0 0 0 0 0 0 0 0 0 0 0
0 0 0 0 0 0 0 0 0 0 0 0 0 0 0 0 0 0 0 0 0 0 0 0 0 0 0 0 0 0 0 0 0 0 0 0 0 0 0 0 0 0 0
0 0 0 0 0 0 0 0 0 0 0 0 0 0 0 0 0 0 0 0 0 0 0 0 0 0 0 0 0 0 0 0 0 0 0 0 0 0 0 0 0 0 0
0 0 0 0 0 0 0 0 0 0 0 0 0 0 0 0 0 0 0 0 0 0 0 0 0 0 0 0 0 0 0 0 0 0 0 0 0 0 0 0 0 0 0
0 0 0 0 0 0 0 0 0 0 0 0 0 0 0 0 0 0 0 0 0 0 0 0 0 0 0 0 0 0 0 0 0 0 0 0 0 0 0 0 0 0 0
0 0 0 0 0 0 0 0 0 0 0 0 0 0 0 0 0 0 0 0 0 0 0 0 0 0 0 0 0 0 0 0 0 0 0 0 0 0 0 0 0 0 0
0 0 0 0 0 0 0 0 0 0 0 0 0 0 0 0 0 0 0 0 0 0 0 0 0 0 0 0 0 0 0 0 0 0 0 0 0 0 0 0 0 0 0
0 0 0 0 0 0 0 0 0 0 0 0 0 0 0 0 0 0 0 0 0 0 0 0 0 0 0 0 0 0 0 0 0 0 0 0 0 0 0 0 0 0 0
0 0 0 0 0 0 0 0 0 0 0 0 0 0 0 0 0 0 0 0 0 0 0 0 0 0 0 0 0 0 0 0 0 0 0 0 0 0 0 0 0 0 0
0 0 0 0 0 0 0 0 0 0 0 0 0 0 0 0 0 0 0 0 0 0 0 0 0 0 0 0 0 0 0 0 0 0 0 0 0 0 0 0 0 0 0
0 0 0 0 0 0 0 0 0 0 0 0 0 0 0 0 0 0 0 0 0 0 0 0 0 0 0 0 0 0 0 0 0 0 0 0 0 0 0 0 0 0 0
0 0 0 0 0 0 0 0 0 0 0 0 0 0 0 0 0 0 0 0 0 0 0 0 0 0 0 0 0 0 0 0 0 0 0 0 0 0 0 0 0 0 0
0 0 0 0 0 0 0 0 0 0 0 0 0 0 0 0 0 0 0 0 0 0 0 0 0 0 0 0 0 0 0 0 0 0 0 0 0 0 0 0 0 0 0
Wind_Speed
2 2 2 3 3 3 3 3 3 4 4 4 4 4 4 4 4 4 3 8 8 8 8 9 9 9 9 9 9 9 9 9 8 8 8 8 8 8 8 8 7 7 7
2 2 2 3 2 2 2 3 3 3 3 3 4 4 4 3 3 4 3 5 8 8 8 8 8 8 8 8 8 8 8 8 8 8 8 8 8 8 8 8 8 7 7
3 3 2 2 2 2 3 3 3 3 3 3 4 4 3 4 3 4 3 3 3 7 8 7 7 7 7 7 7 8 8 8 8 8 8 8 8 8 7 7 7 7 7
3 3 2 2 2 2 2 2 2 3 3 3 3 3 3 3 4 4 4 3 3 3 5 8 7 7 7 6 7 7 7 8 8 8 8 8 8 8 7 7 7 7 7
2 3 2 1 2 2 2 2 2 2 2 2 2 2 2 3 3 3 4 4 3 3 3 6 8 7 7 7 6 6 6 7 7 7 8 8 8 8 8 7 7 7 7
2 3 2 2 2 2 2 2 2 2 2 2 3 3 2 2 2 3 3 3 3 4 4 4 4 5 7 7 6 6 6 6 7 7 7 7 7 7 7 7 7 7 7
2 3 2 2 2 2 2 2 2 3 2 1 2 2 3 2 2 2 2 2 3 3 3 3 3 3 3 7 7 6 6 6 6 6 6 6 6 6 6 6 7 7 7
2 2 3 2 2 2 2 2 2 2 1 1 2 2 2 3 3 3 2 2 2 2 3 3 3 3 2 2 4 6 6 5 5 5 5 5 5 6 6 6 7 7 6
1 2 2 2 2 2 2 1 2 2 1 1 1 2 2 1 1 2 2 2 2 2 2 2 3 3 2 2 2 4 4 4 4 4 4 4 5 5 5 6 6 6 6
2 2 2 3 3 2 2 2 2 2 2 1 1 1 1 3 2 1 2 2 2 2 2 2 2 2 2 2 2 4 4 4 3 3 3 4 4 4 5 5 5 6 6
1 2 2 2 2 2 2 2 2 2 2 2 2 1 2 2 2 2 1 2 2 2 1 1 1 1 2 2 2 2 3 4 4 4 3 3 4 4 4 5 5 5 5
1 1 2 2 2 2 2 2 2 3 2 2 2 2 2 2 2 2 2 1 1 2 2 1 1 1 1 1 2 3 3 3 4 4 4 4 4 4 4 4 4 5 5
1 2 2 2 2 2 2 2 2 2 2 2 2 2 2 2 2 3 2 1 1 2 2 1 1 1 1 1 2 3 3 3 3 4 4 4 4 4 4 4 4 4 5
2 2 3 3 3 3 3 2 2 2 2 2 2 2 1 1 2 2 3 3 1 1 1 2 1 1 1 0 1 2 1 2 3 3 3 3 3 3 3 4 4 4 4
2 2 3 3 3 3 3 3 2 2 2 2 2 2 1 1 1 2 2 3 3 2 2 2 2 1 1 1 1 1 1 1 2 2 3 3 3 3 3 3 3 3 3
2 2 2 3 3 3 3 3 2 2 2 2 2 2 1 1 1 1 1 1 2 3 2 2 2 2 1 1 1 0 1 2 2 2 2 2 2 2 2 2 2 2 2
2 2 3 3 3 3 3 3 3 3 3 2 1 2 2 2 1 1 1 1 2 2 2 2 1 1 1 1 1 1 1 1 2 2 2 2 2 2 2 2 2 2 2
2 3 2 3 3 3 3 4 4 3 4 3 3 2 2 1 1 2 2 2 2 2 2 2 1 1 1 1 1 1 1 1 1 3 3 3 3 3 3 3 3 2 2
2 2 2 3 3 3 3 4 4 4 4 3 3 3 3 2 2 1 2 2 2 2 2 2 1 1 1 1 0 1 1 1 2 2 3 4 3 3 3 3 3 3 2
3 3 3 3 3 3 3 3 4 3 3 3 3 3 3 4 4 3 3 3 2 2 2 1 1 1 1 0 1 1 1 1 2 2 2 2 3 4 4 4 3 3 3
3 3 2 2 2 2 2 3 3 4 4 3 2 3 3 4 5 4 2 3 3 2 2 2 1 1 1 1 2 2 2 1 2 2 1 2 2 2 3 4 4 4 4
2 2 2 2 2 2 3 5 4 3 3 3 3 3 3 3 4 4 4 4 5 4 4 3 2 2 3 3 2 2 2 1 2 1 1 2 1 2 3 3 4 5 5
2 3 3 2 2 3 4 4 5 4 4 4 3 3 2 2 2 2 3 3 4 5 6 5 4 5 4 4 3 3 3 3 3 2 1 2 1 3 3 3 6 6 6
2 3 3 3 2 2 3 3 4 3 3 3 3 3 3 2 2 3 2 2 2 3 4 3 4 5 5 4 5 4 3 2 1 1 2 2 2 3 3 3 5 6 6
2 2 2 3 2 2 2 2 3 2 2 2 2 2 3 3 4 3 3 2 2 3 3 3 3 3 3 4 3 2 2 1 2 2 2 2 2 2 2 2 3 5 5
2 2 1 1 2 2 2 3 4 2 2 2 1 2 3 3 3 3 3 3 3 3 2 1 2 2 2 2 3 3 4 2 2 2 2 2 2 1 2 2 2 2 2
Wind_Direction
66 60 56 55 51 53 58 55 58 57 51 47 50 56 50 43 40 36 23 43 53 62 68 71 75 74 74 72 70 68 65 64 64 64 64 61 58 55 53 53 51 51 45
90 81 70 60 54 56 60 68 71 69 57 54 52 49 47 39 39 39 30 31 42 51 57 63 66 71 74 74 71 69 65 63 64 62 61 60 57 54 52 49 47 46 43
105 98 86 70 55 63 70 72 67 67 63 56 50 45 46 37 37 35 32 28 25 38 48 57 59 65 67 68 67 66 64 64 65 63 62 57 54 51 47 47 45 41 38
115 105 97 85 73 72 75 78 70 72 61 54 50 39 39 36 36 36 36 30 28 26 31 44 53 56 59 63 63 62 64 66 65 64 61 56 51 45 42 44 42 38 37
121 118 112 100 87 79 71 79 64 81 82 65 65 49 35 36 30 40 36 32 33 33 27 32 38 44 51 54 57 58 64 66 66 65 60 55 49 42 41 41 39 37 36
129 125 122 113 101 92 73 75 74 64 83 80 74 54 32 33 37 39 35 31 32 36 35 34 26 26 39 44 47 50 57 63 63 63 59 54 48 42 40 38 36 35 32
138 138 133 124 114 115 119 114 101 78 59 68 76 42 16 28 47 41 35 37 30 29 37 37 32 27 20 32 36 44 48 53 60 61 58 53 48 42 38 36 35 35 32
152 153 150 151 139 122 113 113 109 97 66 68 105 90 24 356 8 24 30 45 28 27 34 35 36 33 24 13 24 38 42 43 51 55 55 55 47 42 36 34 34 31 30
171 160 158 154 154 149 160 160 140 130 130 46 84 131 135 218 315 345 16 27 18 30 22 19 34 27 22 17 7 19 33 31 39 46 53 52 44 39 37 34 35 32 33
164 161 161 160 161 160 167 180 155 145 138 139 75 74 132 155 146 334 342 359 10 23 10 13 20 16 19 10 10 21 32 30 31 39 43 43 41 39 36 35 33 33 34
160 164 164 157 164 169 174 173 155 156 151 154 154 138 106 80 106 142 252 326 348 349 352 350 352 354 1 8 353 11 35 38 36 35 32 30 29 28 27 33 34 34 35
198 190 175 168 173 175 179 184 171 166 168 158 155 151 152 155 168 156 176 236 288 307 329 332 322 321 334 348 344 19 37 43 38 38 35 28 25 23 20 23 29 32 32
219 215 191 183 181 189 181 169 166 172 167 166 171 177 179 181 160 154 153 179 249 300 318 306 277 285 301 339 330 6 26 36 41 40 36 30 26 23 27 29 31 28 30
219 206 194 190 188 182 176 168 171 184 171 179 180 170 173 198 171 165 161 151 154 310 308 281 291 257 272 281 313 345 359 26 35 42 40 28 20 14 18 31 31 28 22
208 190 193 191 191 184 179 169 176 190 175 186 190 179 183 210 185 183 164 159 159 193 263 265 268 272 252 240 272 319 319 344 16 30 30 15 9 7 12 15 15 18 11
206 185 187 194 194 190 182 173 174 176 161 179 179 174 194 198 178 168 170 171 165 169 218 248 243 257 257 258 237 253 280 308 321 343 350 343 345 351 349 349 342 347 345
201 198 196 189 192 194 185 173 181 169 172 180 178 180 207 188 172 174 166 164 167 157 201 260 259 264 248 263 304 297 274 287 294 296 300 298 313 320 323 327 325 325 330
207 201 195 189 193 195 187 183 190 180 179 187 195 187 210 184 184 182 177 185 187 182 182 225 258 258 247 233 244 267 283 274 268 285 284 284 288 299 302 300 295 286 295
199 187 189 196 198 197 192 193 189 185 187 195 194 195 206 182 202 204 196 199 199 189 174 182 238 246 252 215 217 277 284 294 274 274 275 275 276 285 289 285 279 267 267
182 187 198 203 197 190 186 190 186 185 188 197 201 204 205 197 206 207 205 204 193 180 168 167 218 253 251 240 152 232 285 290 283 289 281 277 278 280 281 273 263 255 254
191 182 181 190 192 185 193 185 186 188 190 199 210 219 221 214 214 207 201 196 185 183 177 182 205 227 240 222 223 216 231 276 278 261 276 282 279 276 275 270 261 251 246
178 158 172 184 201 212 198 184 178 185 190 196 212 233 235 223 229 228 223 206 189 184 192 195 209 219 231 226 217 210 196 212 272 254 212 276 259 265 268 255 256 252 249
171 177 187 188 211 223 204 192 187 179 190 202 210 219 231 229 213 216 226 220 218 216 204 196 207 222 222 215 199 207 214 215 232 236 180 265 267 264 269 269 260 250 245
176 193 193 195 204 226 204 196 186 180 188 207 213 213 215 231 219 197 192 203 231 237 227 218 219 229 228 216 206 205 208 224 255 248 186 234 253 259 279 271 265 251 243
179 186 180 181 190 230 210 182 168 174 194 223 228 219 213 222 230 188 167 192 238 262 251 245 255 253 244 225 199 158 159 180 260 253 203 210 238 267 279 275 275 263 250
171 162 158 168 178 214 207 174 154 163 184 216 238 238 235 232 229 190 180 188 223 250 256 265 287 297 278 225 197 196 188 193 231 250 213 201 220 210 279 277 286 292 269